Wetbulb
59.38 59.21 59.16 59.26 59.49 59.49 59.39 59.35 58.81 58.29 58.42 58.29 58.52 58.33 58.90 59.10 58.78 55.11 46.33 54.79 57.96 68.11 66.90 61.68 58.80 58.97 57.61 62.33 66.53 65.38 55.04 52.63 54.40 54.41 57.25 61.98 60.68 64.09 66.36 63.75 64.77 65.07 63.64 64.23 65.97
58.86 58.73 58.83 58.82 59.05 59.16 59.21 59.33 59.02 58.49 58.20 57.62 57.52 58.52 58.80 59.35 53.58 49.81 58.36 66.28 69.32 69.10 52.74 50.77 52.54 55.56 51.55 61.20 63.51 61.23 54.69 56.39 60.52 59.35 58.54 60.83 61.52 62.62 61.97 62.40 62.48 62.25 63.80 65.50 67.83
58.42 58.51 58.34 58.62 58.81 58.83 58.96 59.02 59.02 58.71 57.61 57.33 57.20 58.14 58.83 57.98 50.81 51.89 67.40 69.45 70.32 66.39 51.96 51.57 53.07 52.57 49.12 60.28 61.02 61.91 56.88 61.23 60.16 60.50 62.02 61.31 62.00 63.07 60.52 59.86 61.81 60.79 61.72 65.01 66.14
57.05 56.96 57.08 57.02 58.06 58.69 58.71 58.73 58.64 58.36 57.84 57.40 57.24 58.58 59.29 53.37 46.30 57.89 70.59 71.72 69.90 56.50 52.27 52.29 53.40 49.27 47.22 55.04 62.06 58.95 61.43 61.66 61.31 62.42 62.49 61.36 62.85 62.11 61.78 62.56 64.79 64.44 64.02 65.26 64.84
56.72 56.43 56.28 56.43 56.55 57.19 58.24 58.30 58.00 57.88 57.86 57.86 58.43 58.99 55.18 51.37 54.89 67.86 72.16 71.02 59.38 54.19 51.70 53.25 53.26 49.05 45.21 56.91 61.68 58.49 60.59 61.42 62.89 63.17 62.22 62.10 61.78 62.14 62.86 65.70 66.07 65.35 64.55 64.66 64.70
56.17 56.30 56.29 56.41 56.64 56.97 56.82 57.56 57.60 57.57 57.91 58.31 59.10 59.16 52.80 48.07 61.41 64.31 61.22 55.89 53.63 51.35 50.44 53.24 53.62 50.86 59.93 58.49 57.29 59.10 62.45 61.17 62.65 61.12 61.09 59.28 60.86 62.68 63.39 66.42 64.60 64.79 64.35 64.72 64.58
56.43 56.59 56.96 57.36 57.52 57.63 57.50 56.87 57.03 57.12 57.71 58.61 59.35 58.07 54.03 52.62 61.76 60.14 55.74 51.64 52.05 50.76 50.12 52.33 52.73 50.52 61.34 57.82 60.55 60.51 57.34 60.01 60.96 61.32 60.95 62.30 58.75 59.46 63.98 65.23 63.49 63.92 63.76 64.52 64.54
57.14 57.30 57.44 57.30 57.50 57.33 56.84 56.39 56.46 57.11 57.90 58.96 59.95 54.41 51.99 60.90 61.23 59.87 56.05 51.02 49.76 50.49 49.92 51.20 51.20 56.98 60.64 60.88 59.90 55.16 56.12 50.48 58.16 61.03 61.06 58.01 52.41 60.11 63.86 63.93 63.04 62.88 62.91 63.36 63.75
57.23 57.13 57.19 57.12 56.90 56.19 55.36 55.66 57.21 58.18 59.57 60.67 52.98 50.66 48.77 61.11 55.47 57.29 57.61 54.02 51.20 48.56 49.10 54.37 49.51 57.34 59.11 54.71 50.75 53.17 46.68 50.41 54.14 60.05 58.91 55.55 51.11 59.47 63.70 63.22 62.92 62.08 62.29 62.57 63.65
57.24 57.06 56.91 56.75 56.29 55.68 54.65 56.23 60.61 59.86 59.37 59.26 58.59 48.94 51.87 52.08 52.17 53.58 55.96 54.84 50.37 47.75 46.97 46.18 43.94 43.32 45.30 50.03 43.86 46.54 47.88 52.23 52.39 58.07 58.33 54.21 52.16 57.98 61.22 62.59 61.45 61.99 61.55 62.52 63.03
56.96 56.67 56.35 56.17 55.54 54.47 50.86 51.65 49.19 48.69 53.21 50.16 50.61 51.60 53.52 55.02 52.67 52.70 54.21 50.21 47.20 46.25 40.09 42.07 40.49 39.59 43.72 49.65 45.26 51.66 50.77 50.92 55.71 59.74 56.11 54.37 53.01 55.69 58.55 61.17 61.04 61.43 61.11 61.14 62.27
56.57 56.31 55.94 55.42 54.85 53.90 48.45 50.52 50.19 51.15 46.09 53.30 55.09 54.42 56.09 50.87 47.97 49.98 52.63 48.38 44.64 40.51 41.62 40.65 37.91 42.83 45.76 46.67 45.36 45.91 49.62 50.09 54.81 59.44 55.95 54.45 53.46 55.65 57.30 58.94 61.10 61.32 59.83 61.26 61.96
56.33 56.07 55.42 54.63 53.93 48.59 45.59 48.11 52.40 51.04 45.80 50.38 53.23 53.84 53.54 54.42 49.28 49.56 51.66 47.69 43.34 40.09 40.98 38.75 42.02 44.87 45.02 43.64 51.65 49.42 48.31 50.35 50.11 56.69 57.27 54.39 49.90 53.22 57.15 58.11 61.14 62.34 62.25 62.25 62.41
55.93 55.70 54.79 52.63 48.75 46.96 46.77 49.50 49.81 49.87 42.07 47.07 49.00 52.61 50.74 50.29 47.41 52.82 51.71 48.00 44.45 42.89 41.70 40.66 44.55 44.71 42.06 42.62 50.12 43.35 54.45 54.27 54.67 49.06 43.16 53.30 42.07 50.13 53.48 54.53 58.59 60.54 61.32 61.25 62.44
55.75 55.10 53.71 52.49 47.04 47.47 48.06 48.04 48.34 49.82 34.94 49.89 49.55 53.12 49.20 49.33 47.71 48.37 51.02 48.25 44.94 45.44 43.69 44.06 44.78 42.64 42.02 43.72 53.53 49.21 56.57 53.87 53.42 47.80 46.64 50.63 45.09 46.42 53.17 52.30 54.91 58.14 60.67 61.52 63.15
55.26 54.20 53.06 49.03 46.00 49.51 50.71 47.88 50.16 41.98 36.48 47.28 50.27 47.22 47.23 46.50 46.79 48.82 48.39 48.56 48.87 45.69 43.91 44.98 47.52 46.97 47.44 51.65 54.07 54.18 50.71 49.09 46.45 45.85 39.97 43.43 46.97 44.61 49.29 52.55 54.65 57.49 58.81 61.02 63.28
53.61 52.30 51.57 52.20 49.56 47.69 48.35 49.27 40.01 36.29 47.15 45.63 44.61 45.64 45.22 43.75 45.08 46.48 44.69 41.88 41.65 39.36 37.71 43.26 44.36 45.88 47.54 44.39 45.81 47.86 40.98 36.01 36.73 38.85 37.98 40.90 46.04 46.31 51.75 56.37 56.77 57.34 58.62 60.19 62.22
51.83 50.91 50.37 51.19 49.98 47.05 48.26 44.79 34.61 43.46 44.36 47.78 45.12 44.84 44.17 45.37 43.29 43.88 43.13 41.15 42.53 40.79 38.06 39.14 39.78 43.72 46.03 44.41 44.00 45.52 39.01 34.54 30.76 32.27 35.94 43.18 40.64 45.10 55.44 57.85 59.32 58.78 59.88 61.04 61.72
51.22 47.45 46.58 49.26 51.59 46.19 46.16 37.17 37.59 40.84 47.12 45.95 43.43 41.94 40.95 45.42 44.56 43.14 42.18 41.21 43.23 43.23 39.54 38.62 39.75 47.36 48.37 45.54 45.20 40.21 38.16 39.98 37.47 36.56 37.38 40.07 45.34 50.51 56.85 56.73 57.80 58.28 59.17 60.13 61.32
47.92 46.85 48.10 50.25 50.86 46.03 43.22 39.03 40.53 46.34 48.18 45.86 39.33 42.13 38.98 40.92 42.91 41.54 41.24 44.72 45.53 45.46 44.20 42.11 40.00 43.34 47.21 47.12 46.95 44.06 44.71 40.18 38.59 34.19 32.69 38.06 41.51 42.78 50.26 52.91 56.91 55.75 57.85 58.75 60.90
45.55 43.16 48.45 49.29 45.48 44.81 39.76 39.33 43.59 48.57 49.27 45.56 42.60 41.76 40.55 41.57 42.62 41.02 42.75 46.82 47.96 46.49 46.55 42.27 41.05 42.68 44.74 42.39 40.78 43.09 41.68 40.89 39.88 37.48 34.31 33.41 37.74 47.75 50.54 53.26 54.19 56.06 58.33 58.86 60.26
43.64 40.64 48.04 47.06 40.33 37.40 38.78 41.22 46.37 46.81 47.61 45.45 45.42 44.80 41.43 41.84 41.44 42.70 44.38 46.21 49.45 48.55 44.65 42.86 39.14 37.12 39.66 44.41 43.86 42.20 41.57 41.60 37.61 36.71 37.22 36.48 39.03 50.83 54.15 54.92 56.93 57.84 59.30 60.33 60.80
42.99 42.31 50.73 47.86 37.94 38.20 40.55 43.92 45.28 44.43 45.28 45.11 45.44 45.58 44.33 41.93 39.58 45.05 46.92 48.82 49.84 47.80 45.30 45.28 38.03 34.35 37.74 41.04 43.09 40.78 42.56 39.39 39.61 40.05 38.98 36.70 39.37 52.03 53.66 54.53 56.72 57.33 58.93 58.63 59.40
43.75 39.83 46.66 47.25 44.18 41.96 42.53 44.52 43.99 49.24 47.13 47.03 46.30 45.37 42.86 40.24 40.63 43.39 45.27 48.69 49.63 50.48 56.23 48.41 35.71 37.00 34.95 36.87 39.44 39.09 41.66 44.36 39.79 38.25 37.65 39.13 41.63 47.12 52.22 52.83 55.09 58.41 58.39 56.61 58.38
44.51 41.49 45.18 42.67 44.71 45.33 44.39 44.95 45.45 45.00 48.16 47.33 44.97 45.28 43.19 38.99 39.70 41.76 44.58 45.03 48.67 54.41 42.94 41.23 36.45 34.88 36.36 40.37 41.63 41.60 41.71 42.00 40.61 38.88 39.27 39.50 42.79 45.74 51.25 52.72 54.03 57.39 57.84 56.20 57.82
42.42 45.66 45.92 41.85 44.41 43.87 42.61 42.51 45.71 46.59 46.00 45.14 44.47 46.91 44.10 41.32 43.03 43.64 44.61 43.04 43.41 44.27 40.15 39.06 35.07 37.52 38.36 41.98 41.78 41.08 44.70 44.11 44.89 43.09 43.65 44.08 43.42 48.96 52.85 54.88 54.45 57.73 57.11 57.15 59.57
47.39 47.87 47.69 42.44 42.40 42.00 41.52 45.54 47.54 48.00 48.07 49.38 48.54 46.75 44.99 46.21 46.96 46.59 45.51 47.05 46.93 44.59 41.07 39.94 38.26 36.58 34.60 38.80 40.27 37.39 43.17 44.61 47.56 49.09 47.33 43.64 46.58 54.12 53.08 54.00 54.33 55.16 55.71 55.89 60.81
MSLP
1016.35 1016.10 1015.81 1015.51 1015.20 1014.82 1014.46 1014.17 1013.93 1013.77 1013.55 1013.25 1013.03 1012.93 1012.68 1012.37 1011.87 1011.69 1010.76 1009.01 1008.71 1008.49 1008.76 1009.03 1009.05 1009.11 1009.30 1009.91 1010.17 1010.67 1011.46 1012.17 1012.30 1012.92 1013.59 1013.81 1013.35 1012.85 1012.32 1012.14 1012.22 1012.61 1013.15 1013.82 1014.71
1016.41 1016.14 1015.81 1015.45 1015.08 1014.73 1014.38 1014.10 1013.79 1013.55 1013.40 1013.21 1013.03 1012.82 1012.63 1012.39 1012.08 1010.86 1008.66 1008.56 1008.55 1008.50 1008.78 1008.98 1009.11 1009.37 1009.90 1010.20 1010.40 1010.66 1011.36 1011.62 1011.70 1012.19 1013.12 1013.57 1013.45 1012.99 1012.46 1012.27 1012.65 1013.22 1013.90 1014.46 1015.04
1016.40 1016.09 1015.76 1015.40 1014.99 1014.62 1014.24 1013.96 1013.71 1013.42 1013.23 1013.11 1012.94 1012.74 1012.54 1012.40 1011.59 1008.79 1007.69 1008.38 1008.58 1008.63 1008.70 1008.77 1008.84 1009.32 1009.98 1010.28 1010.39 1010.65 1011.05 1011.29 1011.80 1012.05 1012.74 1013.39 1012.91 1012.53 1012.45 1012.48 1012.60 1013.16 1014.24 1014.95 1015.27
1016.50 1016.15 1015.75 1015.37 1014.97 1014.54 1014.14 1013.78 1013.54 1013.28 1013.08 1012.96 1012.87 1012.60 1012.41 1012.25 1010.37 1007.82 1007.67 1008.29 1008.65 1008.80 1008.85 1008.92 1009.10 1009.60 1010.10 1010.33 1010.33 1010.46 1010.83 1011.06 1011.59 1011.89 1012.41 1013.02 1013.11 1012.46 1012.64 1012.43 1012.34 1013.35 1014.21 1014.76 1015.34
1016.50 1016.09 1015.72 1015.31 1014.88 1014.48 1014.02 1013.60 1013.30 1013.09 1012.90 1012.78 1012.65 1012.52 1012.30 1011.25 1008.79 1007.75 1007.79 1008.37 1008.81 1009.04 1009.07 1009.14 1009.36 1009.46 1009.93 1010.14 1010.32 1010.47 1010.96 1011.24 1011.63 1011.90 1012.24 1012.76 1012.95 1012.69 1012.61 1012.45 1012.89 1013.52 1014.63 1015.19 1015.39
1016.53 1016.05 1015.58 1015.13 1014.71 1014.22 1013.83 1013.39 1013.03 1012.78 1012.67 1012.61 1012.52 1012.49 1012.04 1009.91 1007.49 1007.79 1008.19 1008.76 1008.78 1008.97 1009.00 1009.03 1008.96 1009.01 1009.74 1010.17 1010.36 1010.73 1011.15 1011.62 1012.00 1012.51 1012.88 1013.08 1013.33 1013.15 1013.17 1013.08 1013.42 1014.02 1014.78 1015.36 1015.52
1016.41 1015.90 1015.41 1014.95 1014.50 1014.00 1013.45 1013.03 1012.70 1012.48 1012.48 1012.50 1012.42 1012.34 1011.34 1008.68 1007.70 1007.92 1008.24 1008.54 1008.64 1008.75 1008.89 1008.76 1008.71 1008.99 1009.61 1010.31 1010.74 1011.21 1012.03 1012.30 1012.48 1012.64 1012.95 1013.13 1013.48 1013.43 1013.45 1013.40 1013.69 1014.51 1015.00 1015.41 1015.55
1016.35 1015.79 1015.21 1014.72 1014.23 1013.73 1013.08 1012.62 1012.25 1012.06 1012.18 1012.34 1012.32 1012.18 1010.10 1007.72 1007.70 1008.04 1008.21 1008.48 1008.54 1008.57 1008.63 1008.46 1008.55 1009.13 1009.79 1010.38 1010.98 1011.57 1012.31 1012.74 1012.80 1012.73 1013.08 1013.26 1013.64 1013.61 1013.50 1013.68 1014.08 1014.49 1015.14 1015.49 1015.57
1016.14 1015.62 1015.01 1014.50 1013.99 1013.41 1012.72 1012.23 1011.69 1011.67 1011.91 1012.15 1012.28 1011.65 1009.01 1007.55 1007.76 1007.39 1007.74 1008.16 1008.35 1008.49 1008.48 1008.38 1008.71 1009.90 1010.32 1010.94 1011.59 1011.86 1012.32 1012.67 1012.81 1012.73 1012.89 1013.17 1013.69 1013.79 1013.88 1013.98 1014.17 1014.68 1015.10 1015.29 1015.50
1015.87 1015.28 1014.69 1014.17 1013.68 1013.13 1012.65 1012.11 1011.79 1011.80 1012.01 1012.05 1011.70 1011.16 1008.63 1007.49 1007.14 1007.06 1007.52 1007.83 1008.07 1008.30 1008.62 1008.89 1009.89 1010.63 1011.36 1011.60 1012.05 1011.99 1012.19 1012.30 1012.60 1012.86 1012.83 1013.29 1013.86 1014.06 1014.17 1014.01 1014.41 1014.58 1014.93 1015.22 1015.25
1015.68 1015.03 1014.30 1013.74 1013.30 1012.78 1012.52 1012.48 1012.38 1011.86 1011.53 1010.45 1009.88 1009.12 1007.92 1007.15 1006.78 1006.96 1007.17 1007.62 1008.04 1008.61 1009.32 1009.80 1010.58 1010.88 1010.77 1011.28 1011.11 1011.56 1011.90 1012.09 1012.30 1012.40 1012.68 1013.13 1013.83 1014.08 1014.14 1014.32 1014.44 1014.69 1014.81 1015.06 1014.90
1015.54 1014.87 1014.07 1013.28 1012.90 1012.43 1012.35 1012.00 1011.64 1011.58 1010.80 1009.16 1008.78 1008.32 1007.48 1007.02 1007.10 1006.97 1007.01 1007.76 1008.32 1009.19 1009.65 1010.36 1010.33 1010.20 1010.45 1010.77 1011.06 1011.12 1011.70 1012.10 1012.27 1012.45 1012.93 1013.49 1013.91 1014.12 1014.31 1014.41 1014.40 1014.65 1014.85 1014.92 1015.00
1015.51 1014.81 1014.04 1013.05 1012.56 1012.48 1012.45 1011.33 1010.84 1010.99 1010.91 1008.49 1007.70 1007.20 1006.77 1006.98 1007.02 1006.92 1007.17 1007.69 1008.42 1009.21 1009.72 1010.12 1009.50 1009.27 1009.94 1010.39 1010.85 1011.09 1011.29 1011.72 1012.30 1012.68 1013.06 1013.30 1013.73 1014.23 1014.10 1014.01 1014.37 1014.52 1014.80 1014.81 1014.91
1015.42 1014.86 1014.18 1013.04 1012.59 1012.88 1011.88 1010.90 1010.80 1010.78 1010.55 1008.29 1006.98 1005.95 1006.20 1006.39 1006.79 1006.51 1006.78 1007.51 1008.26 1008.71 1009.50 1009.60 1008.74 1008.89 1009.34 1009.68 1010.07 1010.64 1010.36 1011.51 1012.54 1012.92 1013.49 1013.65 1014.20 1013.97 1014.10 1014.32 1014.19 1013.70 1014.26 1014.40 1014.55
1015.23 1014.79 1014.38 1014.05 1013.75 1012.75 1011.24 1010.93 1010.53 1010.61 1009.96 1007.50 1006.25 1005.32 1005.80 1006.30 1006.55 1006.64 1006.60 1007.02 1007.71 1008.23 1009.03 1008.38 1008.11 1008.24 1008.59 1008.61 1009.21 1010.35 1010.45 1011.91 1013.01 1013.53 1013.97 1014.26 1014.44 1013.75 1013.69 1014.04 1013.79 1013.68 1013.27 1013.60 1013.87
1014.88 1014.61 1014.36 1014.20 1013.91 1011.41 1010.74 1010.57 1010.47 1010.86 1008.97 1006.91 1005.91 1005.72 1006.17 1006.37 1006.38 1006.56 1006.75 1007.00 1007.33 1007.84 1008.21 1008.04 1007.35 1007.18 1007.34 1008.17 1009.00 1010.28 1011.42 1012.69 1013.75 1014.45 1015.24 1014.91 1014.72 1013.85 1013.41 1012.75 1012.59 1012.77 1012.58 1012.56 1012.83
1014.18 1013.89 1014.13 1013.44 1012.14 1011.01 1010.77 1010.75 1011.32 1010.60 1008.38 1007.18 1006.38 1006.20 1006.33 1006.74 1006.68 1006.65 1007.05 1007.42 1007.83 1008.23 1008.61 1007.96 1007.40 1006.99 1006.90 1008.37 1009.64 1010.59 1012.32 1014.30 1015.54 1016.02 1016.06 1015.46 1015.09 1013.32 1012.37 1012.16 1012.06 1011.99 1011.96 1012.19 1012.49
1013.61 1012.80 1012.47 1012.01 1011.24 1011.16 1011.18 1011.45 1011.49 1009.59 1008.42 1007.20 1006.65 1006.62 1006.66 1006.74 1006.88 1007.08 1007.44 1008.02 1008.00 1008.32 1009.06 1008.72 1007.91 1007.19 1007.09 1007.76 1009.16 1010.84 1011.94 1013.61 1015.17 1016.60 1016.09 1015.61 1014.64 1012.62 1012.01 1011.77 1011.31 1011.08 1010.90 1011.21 1011.61
1013.17 1012.39 1012.47 1011.01 1011.08 1011.46 1011.67 1011.99 1010.67 1009.38 1008.12 1007.47 1006.98 1006.92 1006.81 1006.60 1006.89 1007.33 1007.73 1008.12 1007.86 1007.98 1008.53 1008.84 1008.27 1007.39 1007.23 1007.58 1008.53 1010.69 1011.98 1012.76 1014.72 1016.33 1016.24 1015.52 1014.10 1012.59 1011.98 1011.83 1011.55 1011.12 1011.28 1011.57 1011.36
1014.03 1013.15 1011.75 1010.94 1010.98 1011.42 1011.66 1011.42 1010.32 1009.04 1007.98 1007.45 1007.26 1006.93 1006.99 1006.85 1007.19 1007.34 1007.77 1007.23 1007.46 1007.53 1007.64 1008.72 1008.63 1008.10 1007.75 1007.78 1008.91 1009.66 1011.57 1013.00 1014.49 1016.24 1016.63 1015.65 1014.53 1013.28 1012.45 1012.00 1011.96 1011.86 1011.32 1011.12 1011.11
1014.24 1013.34 1011.53 1010.97 1011.10 1011.54 1011.68 1011.01 1009.81 1008.50 1008.01 1007.47 1007.25 1007.08 1006.99 1006.76 1006.89 1007.21 1007.39 1006.97 1006.93 1007.62 1007.89 1008.88 1009.34 1009.27 1008.61 1008.99 1009.52 1010.42 1011.63 1013.40 1014.92 1015.94 1016.29 1015.86 1014.25 1012.24 1012.26 1012.04 1012.07 1012.12 1012.13 1011.84 1011.58
1014.95 1014.05 1011.76 1011.34 1011.80 1012.16 1011.64 1010.60 1009.23 1008.29 1007.69 1007.41 1007.31 1007.21 1007.11 1006.89 1006.79 1006.89 1006.84 1006.55 1006.57 1007.06 1008.40 1009.19 1010.17 1010.62 1010.20 1009.76 1009.84 1010.20 1011.42 1012.69 1014.55 1016.03 1016.12 1015.34 1013.25 1011.66 1011.76 1011.86 1011.94 1011.77 1011.75 1011.69 1011.64
1016.08 1014.46 1011.69 1011.41 1012.09 1012.12 1011.25 1010.24 1009.25 1008.39 1007.79 1007.47 1007.30 1007.01 1006.75 1006.76 1006.90 1006.71 1006.51 1006.40 1006.58 1007.17 1008.09 1009.03 1010.57 1011.48 1011.13 1010.79 1010.13 1010.54 1011.41 1012.44 1013.50 1014.42 1015.36 1015.00 1013.06 1011.71 1011.77 1011.93 1011.95 1012.04 1011.96 1011.77 1011.74
1016.43 1015.25 1013.01 1012.32 1012.41 1012.15 1011.59 1010.35 1009.29 1008.33 1007.92 1007.37 1007.04 1006.91 1007.08 1006.92 1006.71 1006.73 1006.67 1006.82 1006.93 1007.55 1008.07 1008.77 1011.27 1011.66 1011.67 1011.12 1010.87 1010.90 1011.17 1011.94 1012.88 1013.98 1014.73 1014.00 1012.64 1011.58 1011.41 1011.60 1011.77 1011.88 1012.08 1012.03 1011.91
1016.60 1015.73 1014.92 1013.87 1013.19 1012.75 1012.05 1010.87 1009.78 1009.06 1008.33 1007.71 1007.38 1007.10 1007.09 1007.38 1006.97 1007.14 1007.07 1007.25 1007.57 1008.13 1008.81 1009.75 1011.58 1011.96 1011.75 1011.33 1011.09 1010.88 1011.05 1011.42 1012.21 1012.60 1012.95 1012.58 1012.48 1011.29 1011.16 1011.04 1011.36 1011.95 1012.26 1012.21 1012.25
1016.50 1016.04 1015.23 1014.40 1013.68 1013.00 1012.04 1011.11 1010.29 1009.74 1009.28 1008.33 1007.89 1007.53 1007.23 1007.21 1006.87 1007.02 1006.96 1007.39 1007.87 1008.73 1009.49 1010.76 1012.16 1012.42 1012.30 1011.55 1011.22 1010.82 1010.85 1010.93 1011.50 1011.96 1012.14 1012.10 1011.85 1010.93 1010.95 1011.05 1011.60 1012.52 1012.56 1012.51 1012.35
1016.33 1016.03 1015.74 1014.65 1014.03 1013.28 1012.18 1011.37 1010.76 1010.37 1009.10 1008.47 1008.10 1008.01 1007.31 1006.28 1005.98 1006.03 1006.12 1006.05 1006.94 1008.39 1010.13 1011.25 1012.42 1013.34 1013.19 1012.25 1011.56 1011.26 1010.55 1010.60 1010.94 1011.26 1011.52 1011.80 1011.25 1011.16 1011.31 1011.52 1011.90 1012.46 1012.49 1012.41 1012.39
Wind_Speed
14 14 14 14 13 13 12 12 11 11 11 12 12 11 12 13 13 1 5 6 5 5 3 5 1 1 3 2 1 2 4 3 4 5 7 7 2 5 7 8 1 2 5 7 12
14 14 14 14 14 13 13 12 12 12 12 12 12 12 11 12 2 4 9 6 2 6 4 3 4 4 3 1 1 3 3 1 2 6 7 7 9 5 4 7 4 8 14 15 11
16 16 15 15 15 14 14 13 12 12 12 11 10 10 10 7 2 5 7 10 8 6 1 1 2 3 3 1 1 1 2 3 7 12 14 10 3 3 1 3 4 8 13 13 10
17 17 17 16 16 15 15 14 13 12 11 9 9 9 9 2 3 2 9 12 10 5 3 3 2 2 1 2 1 2 2 4 7 9 7 7 3 4 5 1 7 12 15 13 10
17 17 17 17 17 17 16 15 14 13 10 9 8 7 2 1 5 5 14 12 6 5 5 5 4 2 1 3 4 3 5 6 7 6 8 5 3 4 3 3 13 15 12 11 9
17 17 16 16 16 16 16 16 15 14 10 7 6 5 2 1 2 8 11 7 5 5 4 5 3 3 4 2 2 3 6 10 6 8 5 7 4 1 5 3 14 14 12 9 8
16 17 17 17 17 18 18 18 16 13 9 5 4 3 1 5 2 7 8 6 6 4 4 3 3 3 5 4 3 7 5 5 3 7 5 6 2 4 7 10 14 11 10 9 8
18 18 18 18 18 19 20 19 16 11 6 4 2 2 5 1 5 5 3 3 3 3 1 2 1 5 3 3 4 3 5 4 2 3 1 4 2 3 3 5 12 12 10 9 8
18 18 19 19 19 19 21 20 8 4 4 6 2 0 7 1 2 4 6 3 4 2 3 2 4 4 4 4 4 5 1 3 2 3 4 2 2 4 7 7 10 10 10 8 9
18 18 18 18 17 16 18 8 9 8 2 3 3 2 3 1 2 2 4 2 2 3 3 6 6 5 3 4 4 4 2 2 4 4 2 3 1 3 1 8 7 9 10 11 10
19 20 21 20 19 17 5 2 5 4 1 6 5 3 4 3 1 2 4 4 3 9 2 4 5 6 10 6 2 4 3 2 2 6 3 5 5 7 5 4 5 3 8 9 14
19 20 21 23 19 11 1 5 5 3 9 7 5 5 4 1 2 2 3 4 3 2 2 7 4 8 3 4 2 2 1 3 1 4 2 2 4 4 7 3 5 4 6 11 4
19 19 21 23 22 2 2 3 4 3 1 7 5 4 4 8 5 7 7 3 4 4 5 6 5 6 7 4 5 3 5 3 0 4 1 1 1 5 6 6 9 6 6 4 11
19 18 18 30 3 4 4 2 6 5 5 7 3 4 4 5 2 4 6 6 1 7 6 5 5 6 5 5 7 2 7 7 6 4 0 3 4 2 4 4 12 16 11 8 8
19 17 13 6 4 2 1 5 3 3 3 2 3 1 2 7 3 3 3 3 4 5 5 8 4 5 3 7 8 4 8 7 3 4 1 1 3 5 1 6 10 12 16 12 10
21 16 13 1 1 8 7 6 4 7 5 2 4 3 5 2 2 4 3 2 1 3 1 6 3 4 7 5 6 10 9 9 5 3 5 3 2 5 3 5 4 13 16 18 14
24 19 7 1 5 3 5 4 6 4 4 1 4 3 4 4 3 4 4 2 3 3 4 5 1 4 5 8 4 7 7 4 4 4 6 4 2 9 6 5 8 8 14 14 14
28 23 5 5 3 3 3 6 3 4 5 3 2 2 5 7 3 2 5 2 3 4 3 3 8 1 1 7 9 7 7 8 6 5 4 4 5 6 5 4 8 8 11 14 15
25 2 1 4 7 2 6 4 9 7 2 4 3 3 3 4 4 4 6 5 6 8 7 4 4 3 2 3 8 5 3 4 9 3 2 3 7 5 3 5 5 8 2 7 12
5 4 4 2 6 4 6 6 5 4 3 2 1 1 5 3 6 7 6 4 6 9 2 5 2 2 4 3 6 4 5 4 4 4 2 5 5 6 5 8 5 4 7 7 8
3 5 4 4 1 5 4 7 6 6 4 1 2 2 5 4 8 6 7 4 3 4 5 4 4 6 3 4 2 3 2 8 7 3 6 1 8 7 4 4 5 4 5 6 7
3 4 3 1 4 1 3 6 5 4 1 2 2 6 3 2 1 4 8 5 6 8 5 1 6 2 1 4 2 1 3 5 6 4 2 3 7 2 6 6 5 6 4 4 5
3 4 4 3 1 2 4 3 3 4 5 3 3 5 4 2 1 4 5 1 6 5 9 7 2 3 8 8 5 4 3 5 5 4 5 6 7 1 3 4 4 5 5 5 6
2 4 4 4 1 1 4 3 3 3 4 4 5 3 1 3 4 5 3 2 2 4 9 10 4 6 8 7 3 0 2 3 5 4 6 6 5 5 6 6 6 5 4 1 4
0 2 2 4 2 2 1 3 1 3 4 2 3 6 5 4 3 4 2 2 6 4 4 6 5 3 4 4 2 3 2 3 6 5 6 5 8 6 8 9 5 4 3 4 5
1 1 4 3 3 3 1 1 0 2 2 5 4 4 6 6 8 10 8 4 7 1 4 3 2 3 4 2 4 1 3 4 3 2 6 3 6 6 4 2 5 6 4 2 3
1 1 1 3 3 1 3 1 2 3 5 7 2 5 5 10 9 10 4 9 11 10 4 5 7 4 4 2 3 4 4 3 2 1 2 4 4 2 2 5 4 1 4 5 4
Wind_Direction
2 357 351 348 345 341 336 333 330 325 320 316 316 321 322 329 317 185 235 213 191 164 138 105 95 133 52 51 110 126 83 155 192 142 126 136 193 237 298 143 132 355 108 135 130
359 355 350 345 342 337 333 329 326 324 317 315 315 318 325 334 315 246 243 170 158 173 103 142 170 135 42 55 30 58 65 32 156 127 131 133 210 216 182 155 75 75 82 112 127
355 351 348 343 339 335 330 328 325 322 321 315 314 314 323 332 308 250 180 164 163 174 58 103 107 97 64 112 333 94 78 49 72 116 138 156 206 230 129 194 193 157 136 136 142
353 349 346 343 337 334 330 327 323 321 318 315 310 311 314 294 112 54 139 145 146 143 105 99 68 65 101 148 170 81 27 121 125 129 123 137 322 261 172 241 133 134 145 147 162
350 348 345 342 336 331 327 322 319 316 312 308 305 312 322 300 255 95 112 134 125 133 181 169 156 187 82 180 115 78 94 100 116 133 108 94 356 53 185 145 120 127 148 163 171
347 344 340 334 331 326 321 316 315 312 307 301 302 310 319 23 61 120 112 127 157 150 191 181 177 156 93 79 145 142 107 122 143 127 132 122 267 170 264 244 126 145 156 178 186
343 337 331 327 324 322 316 312 309 303 298 293 285 281 5 236 46 128 127 163 171 169 164 209 167 148 141 105 79 90 84 84 135 153 154 170 220 117 155 166 147 159 163 185 202
339 335 330 328 323 321 315 313 303 287 262 234 229 268 246 174 129 132 154 142 171 217 264 286 153 96 76 103 56 111 94 139 220 197 47 173 171 196 177 167 182 160 173 193 209
336 331 327 325 322 322 319 320 304 169 169 171 143 7 286 88 176 206 153 172 156 202 277 269 76 82 40 77 17 16 171 98 168 248 135 132 190 192 180 202 189 162 186 195 225
333 330 326 325 323 320 323 304 115 112 128 194 250 12 279 298 227 185 175 177 131 115 59 44 51 79 45 95 201 227 245 185 159 190 147 129 173 144 190 174 185 185 192 194 210
334 331 328 327 327 324 331 98 6 357 151 211 217 250 288 260 112 218 134 109 85 52 104 5 86 189 213 189 160 136 187 217 149 176 131 199 163 196 151 154 150 213 192 191 212
333 332 330 327 331 332 204 84 133 156 309 234 255 264 270 188 109 280 109 98 84 125 81 22 254 221 170 191 256 287 164 194 44 148 62 146 227 199 173 174 182 189 202 200 213
332 331 331 327 324 11 315 229 86 102 178 299 197 190 196 140 194 193 131 138 130 138 175 163 236 143 149 175 169 206 200 141 114 123 194 141 292 146 226 161 182 196 239 246 200
331 332 335 327 28 322 281 117 317 191 54 281 284 272 112 125 229 187 164 136 153 192 160 229 258 181 172 194 160 205 204 115 121 88 75 52 292 191 229 190 199 191 207 213 198
327 331 334 340 295 303 268 315 292 64 18 215 217 88 25 134 151 225 199 83 204 181 119 255 160 139 148 219 154 232 103 113 122 93 112 342 67 271 125 187 214 211 203 202 200
323 326 330 133 244 247 315 328 62 43 256 314 163 160 112 346 293 121 154 105 185 165 247 247 276 177 188 52 108 121 80 46 54 46 9 321 113 279 219 208 206 208 212 204 192
318 316 292 230 234 325 314 45 39 154 304 286 220 167 162 203 231 142 155 211 178 81 350 331 286 309 113 77 53 76 59 25 15 14 225 344 38 245 248 259 232 249 217 206 190
319 316 212 215 284 332 53 58 191 239 241 307 28 102 182 157 240 124 124 258 230 101 98 98 332 19 137 160 177 172 155 150 179 188 244 30 237 262 213 277 300 276 205 193 196
317 326 232 261 207 1 83 109 207 210 242 342 358 158 235 237 163 151 181 197 228 173 154 137 271 297 344 128 124 199 179 171 103 1 69 240 294 302 253 280 342 345 96 206 207
321 342 277 64 146 71 87 216 220 220 320 68 114 183 188 240 163 150 171 212 215 198 128 192 56 40 311 85 41 121 140 80 14 128 238 299 282 243 250 260 235 257 237 219 203
2 355 323 92 37 51 170 217 233 239 238 98 182 336 246 228 170 177 197 264 197 100 80 128 100 299 31 26 200 52 55 55 108 99 149 188 273 212 191 176 215 273 297 295 260
356 344 307 39 60 38 175 198 221 247 99 281 159 215 226 291 183 179 190 233 143 141 135 138 125 124 173 318 284 172 135 133 121 211 99 139 273 204 169 177 184 213 256 298 300
344 272 310 93 138 282 291 268 242 207 230 191 244 219 216 248 188 181 167 68 146 122 163 188 34 51 0 353 348 53 78 98 103 93 186 136 262 75 167 216 247 223 237 303 325
354 334 319 41 51 106 11 271 265 297 260 216 229 144 250 270 188 208 136 89 107 106 83 87 96 147 187 208 168 258 46 155 104 117 167 221 265 278 238 211 190 204 198 298 315
118 272 187 318 333 350 294 300 315 342 329 308 272 212 166 259 147 201 121 75 30 133 65 103 131 155 195 218 216 184 232 196 186 188 156 242 210 262 246 226 193 173 177 32 344
239 337 346 273 304 323 150 203 118 338 232 270 224 311 180 195 191 196 142 163 182 219 79 28 153 148 184 265 263 258 149 217 230 127 290 209 259 221 305 314 33 96 145 220 324
297 304 149 282 318 353 238 56 311 341 261 246 311 351 258 234 215 210 256 166 164 143 132 111 133 110 223 5 10 343 245 191 160 174 180 186 249 49 342 317 333 160 198 181 163